Location: Cutler
(25.6150°N, 80.3110°W)
Time: 22:04:04
(UTC-04:00)

Vanguard 1 - Pass Details

Date: 28 January 2018
Orbit: 650 x 3833 km, 34.3° (Epoch: 21 May)

Event Time Altitude Azimuth Distance (km) Brightness Sun altitude
Rises 05:03:56 0° 286° (WNW) 5,157 - -27.6°
Reaches altitude 10° 05:06:57 10° 280° (W) 4,514 - -26.9°
Exits shadow 05:13:06 32° 258° (WSW) 3,655 12.4 -25.6°
Maximum altitude 05:19:35 45° 213° (SSW) 3,654 12.7 -24.1°
Drops below altitude 10° 05:39:33 10° 149° (SSE) 6,853 14.9 -19.7°
Sets 05:45:40 0° 143° (SE) 7,965 15.5 -18.3°
